Location: Diebersbach
(48.5163°N, 8.0558°E)
Time: 10:12:59
(UTC+00:00)

NOSS 3-1 (A) - Pass Details

Date: 20 June 2021
Orbit: 729 x 1483 km, 63.4° (Epoch: 23 July)

Event Time Altitude Azimuth Distance (km) Brightness Sun altitude
Exits shadow 00:42:42 21° 228° (SW) 1,762 4.4 -16.2°
Maximum altitude 00:46:28 78° 312° (NW) 907 3.4 -16.0°
Drops below altitude 10° 00:52:56 10° 40° (NE) 2,804 7.0 -15.7°
Sets 00:55:49 0° 42° (NE) 3,881 8.0 -15.5°
